�N����,����,�g�[���i���ԁj���x,�g�[�����x,��g�[���i���ցj���x,����
 2004/04/01, 0:00,19.9,48,16.9,17.1
 2004/04/01, 0:15,19.8,48,16.9,17.2
 2004/04/01, 0:30,19.8,48,16.9,17.3
 2004/04/01, 0:45,19.6,49,16.9,17.4
 2004/04/01, 1:00,19.5,49,16.9,17.5
 2004/04/01, 1:15,19.4,49,16.9,17.5
 2004/04/01, 1:30,19.3,49,16.8,17.6
 2004/04/01, 1:45,19.2,49,16.8,17.7
 2004/04/01, 2:00,19,48,16.8,17.7
 2004/04/01, 2:15,18.9,49,16.8,17.8
 2004/04/01, 2:30,18.7,49,16.7,17.8
 2004/04/01, 2:45,18.6,50,16.7,17.9
 2004/04/01, 3:00,18.5,50,16.7,17.9
 2004/04/01, 3:15,18.4,50,16.7,18
 2004/04/01, 3:30,18.4,51,16.6,18
 2004/04/01, 3:45,18.3,51,16.6,18
 2004/04/01, 4:00,18.2,51,16.6,18.1
 2004/04/01, 4:15,18,51,16.5,18.1
 2004/04/01, 4:30,17.9,51,16.5,18.1
 2004/04/01, 4:45,17.8,51,16.4,18.2
 2004/04/01, 5:00,17.7,52,16.4,18.2
 2004/04/01, 5:15,17.7,52,16.3,18.2
 2004/04/01, 5:30,17.5,52,16.3,18.3
 2004/04/01, 5:45,17.5,52,16.2,18.3
 2004/04/01, 6:00,17.4,52,16.2,18.3
 2004/04/01, 6:15,17.3,52,16.1,18.3
 2004/04/01, 6:30,17.3,52,16.1,18.3
 2004/04/01, 6:45,17.2,52,16,17.4
 2004/04/01, 7:00,17.3,52,16,17.4
 2004/04/01, 7:15,16.5,45,16,17.5
 2004/04/01, 7:30,16.1,46,15.9,17.6
 2004/04/01, 7:45,16.7,52,16.2,17.7
 2004/04/01, 8:00,17.2,52,16.4,17.8
 2004/04/01, 8:15,17.4,51,16.5,17.8
 2004/04/01, 8:30,17.7,51,16.8,16.2
 2004/04/01, 8:45,17.8,51,16.8,16.5
 2004/04/01, 9:00,17.9,50,16.7,15.9
 2004/04/01, 9:15,18.2,50,16.9,15.2
 2004/04/01, 9:30,18.4,49,17,15.6
 2004/04/01, 9:45,18.5,49,17.1,15.9
 2004/04/01,10:00,18.7,48,17.2,16.1
 2004/04/01,10:15,19,47,17.3,16.3
 2004/04/01,10:30,19.3,47,17.5,16.5
 2004/04/01,10:45,19.4,46,17.6,16.6
 2004/04/01,11:00,19.5,46,17.7,16.7
 2004/04/01,11:15,19.6,45,17.8,16.8
 2004/04/01,11:30,19.8,45,18,17
 2004/04/01,11:45,19.8,44,18.1,17.1
 2004/04/01,12:00,19.8,46,18.2,17.2
 2004/04/01,12:15,19.7,46,18.3,17.3
 2004/04/01,12:30,19.8,45,18.4,17.4
 2004/04/01,12:45,19.8,44,18.5,17.5
 2004/04/01,13:00,19.8,44,18.6,17.6
 2004/04/01,13:15,19.8,45,18.6,17
 2004/04/01,13:30,19.8,45,18.7,17.3
 2004/04/01,13:45,19.8,46,18.8,17.5
 2004/04/01,14:00,19.8,46,18.8,17.7
 2004/04/01,14:15,19.9,46,18.9,17.8
 2004/04/01,14:30,20,46,19,18
 2004/04/01,14:45,20,46,19,18.1
 2004/04/01,15:00,20.1,46,19.2,18.2
 2004/04/01,15:15,20.1,46,19.2,18.4
 2004/04/01,15:30,20.2,46,19.3,18.5
 2004/04/01,15:45,20.3,46,19.3,18.6
 2004/04/01,16:00,20.4,46,19.4,18.7
 2004/04/01,16:15,20.4,46,19.5,18.8
 2004/04/01,16:30,20.5,46,19.5,18.9
 2004/04/01,16:45,20.6,46,19.6,18.9
 2004/04/01,17:00,20.6,46,19.6,19
 2004/04/01,17:15,20.6,45,19.6,19.1
 2004/04/01,17:30,20.7,45,19.6,19.2
 2004/04/01,17:45,20.6,41,19.6,19.3
 2004/04/01,18:00,20.2,34,19.5,19.4
 2004/04/01,18:15,20.4,42,19.7,19.4
 2004/04/01,18:30,20.7,43,19.8,19.5
 2004/04/01,18:45,21,45,19.7,19.5
 2004/04/01,19:00,21.2,48,19.7,19.6
 2004/04/01,19:15,21.4,51,19.6,19.6
 2004/04/01,19:30,21.5,52,19.6,19.7
 2004/04/01,19:45,21.5,49,19.7,17.1
 2004/04/01,20:00,21.5,47,19.7,17.5
 2004/04/01,20:15,21.6,47,19.6,16.6
 2004/04/01,20:30,21.7,48,19.3,17.1
 2004/04/01,20:45,21.7,49,19.1,17.5
 2004/04/01,21:00,21.7,49,19,17.7
 2004/04/01,21:15,21.8,49,18.9,17.9
 2004/04/01,21:30,21.8,49,18.8,18
 2004/04/01,21:45,21.8,49,18.7,18.2
 2004/04/01,22:00,21.6,49,18.7,18.3
 2004/04/01,22:15,21.8,49,18.7,18.4
 2004/04/01,22:30,21.6,48,18.7,16
 2004/04/01,22:45,21.7,49,18.6,16.6
 2004/04/01,23:00,21.7,49,18.6,17
 2004/04/01,23:15,21.6,48,18.6,17.3
 2004/04/01,23:30,21.4,48,18.5,17.5
 2004/04/01,23:45,21.3,48,18.6,17.7
 2004/04/02, 0:00,21.2,47,18.6,17.9
 2004/04/02, 0:15,21,48,18.6,18
 2004/04/02, 0:30,20.9,49,18.6,18.1
 2004/04/02, 0:45,20.8,49,18.6,18.2
 2004/04/02, 1:00,20.6,49,18.6,18.2
 2004/04/02, 1:15,20.6,49,18.5,18.3
 2004/04/02, 1:30,20.5,49,18.5,18.4
 2004/04/02, 1:45,20.3,49,18.5,18.5
 2004/04/02, 2:00,20.2,49,18.5,18.5
 2004/04/02, 2:15,20.1,50,18.4,18.6
 2004/04/02, 2:30,20,50,18.4,18.7
 2004/04/02, 2:45,19.9,50,18.3,18.7
 2004/04/02, 3:00,19.7,49,18.3,18.8
 2004/04/02, 3:15,19.6,50,18.3,18.8
 2004/04/02, 3:30,19.6,50,18.2,18.9
 2004/04/02, 3:45,19.6,50,18.2,18.9
 2004/04/02, 4:00,19.6,50,18.1,19
 2004/04/02, 4:15,19.5,50,18.1,19.1
 2004/04/02, 4:30,19.4,50,18,19.1
 2004/04/02, 4:45,19.4,50,18,19.1
 2004/04/02, 5:00,19.3,50,17.9,19.1
 2004/04/02, 5:15,19.4,51,17.9,19.2
 2004/04/02, 5:30,19.3,50,17.8,19.2
 2004/04/02, 5:45,19.3,51,17.8,19.2
 2004/04/02, 6:00,19.1,51,17.8,19.3
 2004/04/02, 6:15,19.1,52,17.7,19.3
 2004/04/02, 6:30,19.1,52,17.7,19.3
 2004/04/02, 6:45,19.1,53,17.6,18.4
 2004/04/02, 7:00,18.7,55,17.6,18.5
 2004/04/02, 7:15,18.7,60,17.5,18.6
 2004/04/02, 7:30,18.7,62,17.5,18.8
 2004/04/02, 7:45,18.6,60,17.5,18.8
 2004/04/02, 8:00,18.7,58,17.4,17.2
 2004/04/02, 8:15,18.6,58,17.4,17.5
 2004/04/02, 8:30,18.7,58,17.5,17.7
 2004/04/02, 8:45,18.9,58,17.8,17.9
 2004/04/02, 9:00,19,57,18,18
 2004/04/02, 9:15,19.1,58,18.2,15.9
 2004/04/02, 9:30,19.2,59,18.3,16.4
 2004/04/02, 9:45,19.3,59,18.5,16.7
 2004/04/02,10:00,19.3,59,18.6,16.9
 2004/04/02,10:15,19.3,59,18.6,17.1
 2004/04/02,10:30,19.4,58,18.7,17.3
 2004/04/02,10:45,19.7,58,18.8,17.4
 2004/04/02,11:00,20,57,18.9,17.5
 2004/04/02,11:15,20.1,56,19.1,17.6
 2004/04/02,11:30,20.3,56,19.2,17.7
 2004/04/02,11:45,20.5,55,19.3,17.8
 2004/04/02,12:00,20.6,55,19.4,17.9
 2004/04/02,12:15,20.7,54,19.5,18
 2004/04/02,12:30,20.7,54,19.6,18.1
 2004/04/02,12:45,20.8,54,19.7,18.2
 2004/04/02,13:00,20.8,53,19.8,18.3
 2004/04/02,13:15,20.7,53,19.9,18.4
 2004/04/02,13:30,20.7,52,19.9,18.5
 2004/04/02,13:45,20.7,52,20,18.6
 2004/04/02,14:00,20.7,52,20.1,18.7
 2004/04/02,14:15,20.7,52,20.1,18.8
 2004/04/02,14:30,20.7,51,20.2,18.8
 2004/04/02,14:45,20.8,51,20.3,18.9
 2004/04/02,15:00,20.8,49,20.4,19
 2004/04/02,15:15,20.9,49,20.5,19.1
 2004/04/02,15:30,20.9,49,20.6,19.2
 2004/04/02,15:45,21,50,20.6,18.6
 2004/04/02,16:00,21.1,50,20.6,18.6
 2004/04/02,16:15,21.1,49,20.4,18.9
 2004/04/02,16:30,21.2,49,20.3,19.1
 2004/04/02,16:45,21.2,48,20.3,19.3
 2004/04/02,17:00,21.2,47,20.3,19.4
 2004/04/02,17:15,21.2,47,20.3,19.5
 2004/04/02,17:30,21.2,46,20.3,19.6
 2004/04/02,17:45,21.2,46,20.3,19.7
 2004/04/02,18:00,21.2,46,20.2,19.8
 2004/04/02,18:15,21.2,45,20.2,19.9
 2004/04/02,18:30,21.2,46,20.1,20
 2004/04/02,18:45,21.2,46,20.1,20.1
 2004/04/02,19:00,21.2,45,20,20.1
 2004/04/02,19:15,21.3,45,20,20.2
 2004/04/02,19:30,21.3,46,19.9,20.3
 2004/04/02,19:45,21.4,47,19.8,20.3
 2004/04/02,20:00,21.4,47,19.7,20.4
 2004/04/02,20:15,21.5,47,19.7,20.5
 2004/04/02,20:30,21.5,48,19.6,20.5
 2004/04/02,20:45,21.5,48,19.6,20.6
 2004/04/02,21:00,21.5,48,19.5,20.6
 2004/04/02,21:15,21.4,48,19.5,20.7
 2004/04/02,21:30,21.5,48,19.4,20.7
 2004/04/02,21:45,21.4,48,19.4,19
 2004/04/02,22:00,21.4,49,19.4,19.1
 2004/04/02,22:15,21.6,49,19.4,19.2
 2004/04/02,22:30,21.6,49,19.3,19.4
 2004/04/02,22:45,21.5,49,19.2,17.8
 2004/04/02,23:00,21.3,50,19.1,18.2
 2004/04/02,23:15,21.2,50,19,17.4
 2004/04/02,23:30,21.1,50,19,17.8
 2004/04/02,23:45,21,51,18.9,18.1
 2004/04/03, 0:00,20.9,51,18.9,18.3
 2004/04/03, 0:15,20.9,51,18.8,18.5
 2004/04/03, 0:30,20.8,51,18.7,18.6
 2004/04/03, 0:45,20.7,51,18.6,18.8
 2004/04/03, 1:00,20.6,52,18.6,18.8
 2004/04/03, 1:15,20.5,52,18.5,18.9
 2004/04/03, 1:30,20.3,49,18.5,19
 2004/04/03, 1:45,20.2,50,18.4,19
 2004/04/03, 2:00,20.1,49,18.4,19.1
 2004/04/03, 2:15,19.9,49,18.4,19.1
 2004/04/03, 2:30,19.8,48,18.3,19.2
 2004/04/03, 2:45,19.6,48,18.3,19.2
 2004/04/03, 3:00,19.4,48,18.2,19.2
 2004/04/03, 3:15,19.3,48,18.2,19.3
 2004/04/03, 3:30,19.2,48,18.2,19.3
 2004/04/03, 3:45,19.1,49,18.1,19.4
 2004/04/03, 4:00,18.9,49,18.1,19.4
 2004/04/03, 4:15,18.8,49,18,19.4
 2004/04/03, 4:30,18.8,49,18,19.4
 2004/04/03, 4:45,18.6,50,17.9,19.4
 2004/04/03, 5:00,18.5,49,17.9,19.4
 2004/04/03, 5:15,18.5,49,17.8,19.5
 2004/04/03, 5:30,18.4,50,17.8,19.5
 2004/04/03, 5:45,18.3,50,17.7,19.5
 2004/04/03, 6:00,18.3,50,17.7,19.5
 2004/04/03, 6:15,18.2,50,17.6,19.5
 2004/04/03, 6:30,18.2,50,17.6,19.5
 2004/04/03, 6:45,18.2,50,17.5,19.5
 2004/04/03, 7:00,18.2,50,17.5,19.5
 2004/04/03, 7:15,18.2,50,17.4,19.5
 2004/04/03, 7:30,18.4,50,17.4,19.5
 2004/04/03, 7:45,18.3,51,17.4,17.2
 2004/04/03, 8:00,18.4,51,17.4,16.9
 2004/04/03, 8:15,18.5,51,17.4,17.1
 2004/04/03, 8:30,18.7,51,17.4,16.8
 2004/04/03, 8:45,18.7,49,17.4,16
 2004/04/03, 9:00,18.9,49,17.5,15.6
 2004/04/03, 9:15,19.1,48,17.8,15.3
 2004/04/03, 9:30,19.3,48,17.8,15.8
 2004/04/03, 9:45,18.8,43,17.8,16.1
 2004/04/03,10:00,19.1,43,17.8,16.4
 2004/04/03,10:15,19.4,43,17.9,16.6
 2004/04/03,10:30,19.4,43,18.1,16.8
 2004/04/03,10:45,19.6,44,18.1,16.9
 2004/04/03,11:00,19.8,44,18.2,17
 2004/04/03,11:15,20,43,18.4,17.2
 2004/04/03,11:30,20.2,42,18.5,17.3
 2004/04/03,11:45,20.3,43,18.6,17.2
 2004/04/03,12:00,20.3,43,18.7,17.5
 2004/04/03,12:15,20.3,42,18.8,17.7
 2004/04/03,12:30,20.4,43,18.9,17.9
 2004/04/03,12:45,20.5,43,18.9,18
 2004/04/03,13:00,20.5,43,19,18.2
 2004/04/03,13:15,20.5,43,19.1,18.3
 2004/04/03,13:30,20.6,42,19.1,18.4
 2004/04/03,13:45,20.6,41,19.2,18.2
 2004/04/03,14:00,20.5,41,19.2,17.8
 2004/04/03,14:15,19.6,34,19.1,18.1
 2004/04/03,14:30,19.3,35,19,18.3
 2004/04/03,14:45,19.5,35,19,18.5
 2004/04/03,15:00,19.3,36,18.9,18
 2004/04/03,15:15,19.5,39,18.9,17.8
 2004/04/03,15:30,19.8,37,19,18
 2004/04/03,15:45,19.9,38,19.1,18.2
 2004/04/03,16:00,20,39,19.1,18.4
 2004/04/03,16:15,19.9,37,19.2,18.6
 2004/04/03,16:30,20,40,19.1,18.7
 2004/04/03,16:45,20.2,41,19.2,18.8
 2004/04/03,17:00,20.3,42,19.2,18.9
 2004/04/03,17:15,20.4,42,19.1,19
 2004/04/03,17:30,20.5,42,19,19
 2004/04/03,17:45,20.6,43,19,19.1
 2004/04/03,18:00,20.6,43,19.1,18.2
 2004/04/03,18:15,20.6,44,19.3,18.4
 2004/04/03,18:30,20.7,45,19.3,18.6
 2004/04/03,18:45,20.9,48,19.1,18.8
 2004/04/03,19:00,20.9,48,19,18.9
 2004/04/03,19:15,21.2,53,18.9,19
 2004/04/03,19:30,21.3,53,18.8,19.1
 2004/04/03,19:45,21.4,54,18.8,19.2
 2004/04/03,20:00,21.2,49,18.9,19.2
 2004/04/03,20:15,21.2,50,18.8,19.4
 2004/04/03,20:30,21.1,50,18.8,18.3
 2004/04/03,20:45,21,50,18.7,18.5
 2004/04/03,21:00,21.1,51,18.7,18.7
 2004/04/03,21:15,21.2,51,18.7,18.9
 2004/04/03,21:30,21.2,51,18.6,19.1
 2004/04/03,21:45,21.1,51,18.6,19.2
 2004/04/03,22:00,21.1,52,18.6,19.3
 2004/04/03,22:15,21,51,18.5,19.3
 2004/04/03,22:30,21.3,52,18.5,19.4
 2004/04/03,22:45,21.2,52,18.4,17.5
 2004/04/03,23:00,21.1,51,18.4,17.9
 2004/04/03,23:15,21,50,18.4,18.1
 2004/04/03,23:30,20.9,51,18.4,18.3
 2004/04/03,23:45,20.8,51,18.3,18.5
 2004/04/04, 0:00,20.7,52,18.3,17.6
 2004/04/04, 0:15,20.6,51,18.3,17.9
 2004/04/04, 0:30,20.5,52,18.3,18.1
 2004/04/04, 0:45,20.5,52,18.3,18.2
 2004/04/04, 1:00,20.3,52,18.2,18.4
 2004/04/04, 1:15,20.2,52,18.1,18.5
 2004/04/04, 1:30,20.1,52,18.1,18.6
 2004/04/04, 1:45,20,52,18,18.6
 2004/04/04, 2:00,19.9,52,18,18.7
 2004/04/04, 2:15,19.8,52,17.9,18.8
 2004/04/04, 2:30,19.8,52,17.9,18.8
 2004/04/04, 2:45,19.6,52,17.8,18.9
 2004/04/04, 3:00,19.5,52,17.8,18.9
 2004/04/04, 3:15,19.5,53,17.7,18.9
 2004/04/04, 3:30,19.4,53,17.7,19
 2004/04/04, 3:45,19.3,53,17.6,19
 2004/04/04, 4:00,19.2,53,17.6,19
 2004/04/04, 4:15,19.1,53,17.5,19.1
 2004/04/04, 4:30,19,53,17.5,19.1
 2004/04/04, 4:45,18.9,53,17.4,19.1
 2004/04/04, 5:00,18.9,53,17.4,19.1
 2004/04/04, 5:15,18.7,53,17.3,19.2
 2004/04/04, 5:30,18.7,53,17.3,19.2
 2004/04/04, 5:45,18.6,53,17.3,19.2
 2004/04/04, 6:00,18.5,53,17.2,19.2
 2004/04/04, 6:15,18.4,54,17.2,19.2
 2004/04/04, 6:30,18.3,54,17.2,19.2
 2004/04/04, 6:45,18.3,54,17.1,19.2
 2004/04/04, 7:00,18.2,54,17.1,19.3
 2004/04/04, 7:15,18.1,54,17,19.3
 2004/04/04, 7:30,18.1,54,17,19.3
 2004/04/04, 7:45,18,54,17,18.8
 2004/04/04, 8:00,17.8,56,16.9,18.4
 2004/04/04, 8:15,17.8,57,16.9,18.5
 2004/04/04, 8:30,18.1,57,16.7,18.6
 2004/04/04, 8:45,18.2,58,16.6,17.4
 2004/04/04, 9:00,18.3,60,16.5,16.3
 2004/04/04, 9:15,18.1,56,16.8,16.7
 2004/04/04, 9:30,18.2,58,16.8,15.8
 2004/04/04, 9:45,18.4,57,16.8,16.1
 2004/04/04,10:00,18.2,57,16.9,16.4
 2004/04/04,10:15,18.2,58,16.8,16.7
 2004/04/04,10:30,18,57,16.8,16.9
 2004/04/04,10:45,17.9,58,16.7,17
 2004/04/04,11:00,17.8,58,16.7,17.1
 2004/04/04,11:15,17.8,58,16.7,17.2
 2004/04/04,11:30,17.7,59,16.7,17.3
 2004/04/04,11:45,17.6,59,16.6,17.4
 2004/04/04,12:00,17.5,59,16.6,17.4
 2004/04/04,12:15,17.5,60,16.6,17.5
 2004/04/04,12:30,17.4,60,16.6,17.5
 2004/04/04,12:45,17.4,63,16.5,16.8
 2004/04/04,13:00,17.4,66,16.5,17
 2004/04/04,13:15,17.4,65,16.5,17.1
 2004/04/04,13:30,17.5,65,16.4,17.3
 2004/04/04,13:45,17.3,65,16.4,17.4
 2004/04/04,14:00,17.3,65,16.3,17.4
 2004/04/04,14:15,17.2,65,16.3,17.5
 2004/04/04,14:30,17.1,65,16.2,17.6
 2004/04/04,14:45,17.1,64,16.2,17.6
 2004/04/04,15:00,17,65,16.1,17.7
 2004/04/04,15:15,17.1,64,16.1,17.7
 2004/04/04,15:30,16.9,64,16,17.8
 2004/04/04,15:45,16.8,65,15.9,17.8
 2004/04/04,16:00,16.8,65,15.9,17.9
 2004/04/04,16:15,17,64,15.9,17.9
 2004/04/04,16:30,16.9,64,15.8,17.9
 2004/04/04,16:45,17,65,15.8,16.8
 2004/04/04,17:00,16.9,65,15.7,17
 2004/04/04,17:15,17.1,65,15.7,17.2
 2004/04/04,17:30,17.2,63,15.6,17.3
 2004/04/04,17:45,17.3,64,15.6,17.4
 2004/04/04,18:00,17.3,63,15.5,17.5
 2004/04/04,18:15,17.5,62,15.9,17.6
 2004/04/04,18:30,17.6,62,16.2,17.7
 2004/04/04,18:45,17.9,63,16.3,17.7
 2004/04/04,19:00,18.3,65,15.9,17.8
 2004/04/04,19:15,18.3,61,15.5,17.8
 2004/04/04,19:30,18.2,61,15.3,17.9
 2004/04/04,19:45,18.2,59,15.1,17.9
 2004/04/04,20:00,18.3,58,15,16.7
 2004/04/04,20:15,18.3,59,14.9,16.8
 2004/04/04,20:30,18.2,58,14.9,16.9
 2004/04/04,20:45,18.2,58,14.8,17.1
 2004/04/04,21:00,18.4,60,14.8,16.3
 2004/04/04,21:15,18.5,60,14.8,16.4
 2004/04/04,21:30,18.6,60,14.8,16.6
 2004/04/04,21:45,18.7,59,14.8,16.8
 2004/04/04,22:00,18.9,63,14.7,16.9
 2004/04/04,22:15,18.9,62,14.7,17.1
 2004/04/04,22:30,19,61,14.6,17.1
 2004/04/04,22:45,19.2,61,14.6,17.2
 2004/04/04,23:00,19,60,14.6,16.1
 2004/04/04,23:15,18.9,58,14.6,16.3
 2004/04/04,23:30,18.9,59,14.6,16.5
 2004/04/04,23:45,18.9,59,14.6,16.7
 2004/04/05, 0:00,18.9,58,14.6,16.1
 2004/04/05, 0:15,18.4,59,14.7,16
 2004/04/05, 0:30,18.1,60,14.7,16.2
 2004/04/05, 0:45,17.8,59,14.7,16.3
 2004/04/05, 1:00,17.6,60,14.7,16.5
 2004/04/05, 1:15,17.4,60,14.6,16.6
 2004/04/05, 1:30,17.3,59,14.6,16.6
 2004/04/05, 1:45,17,59,14.5,16.7
 2004/04/05, 2:00,16.8,59,14.5,16.8
 2004/04/05, 2:15,16.6,58,14.4,16.8
 2004/04/05, 2:30,16.5,58,14.3,16.8
 2004/04/05, 2:45,16.3,59,14.3,16.9
 2004/04/05, 3:00,16.2,59,14.3,16.9
 2004/04/05, 3:15,16,59,14.2,16.9
 2004/04/05, 3:30,15.9,59,14.2,16.9
 2004/04/05, 3:45,15.7,59,14.2,16.9
 2004/04/05, 4:00,15.6,59,14.2,17
 2004/04/05, 4:15,15.5,60,14.1,17
 2004/04/05, 4:30,15.4,60,14.1,17
 2004/04/05, 4:45,15.2,60,14,17
 2004/04/05, 5:00,15.2,60,14,17
 2004/04/05, 5:15,15.1,60,13.9,17.1
 2004/04/05, 5:30,15,60,13.9,17.1
 2004/04/05, 5:45,14.9,60,13.8,17.1
 2004/04/05, 6:00,14.8,60,13.8,17.1
 2004/04/05, 6:15,14.8,60,13.7,17.1
 2004/04/05, 6:30,14.6,59,13.7,17.1
 2004/04/05, 6:45,14.7,59,13.7,16.2
 2004/04/05, 7:00,14.8,58,13.7,16
 2004/04/05, 7:15,14.8,56,13.6,16.1
 2004/04/05, 7:30,14.7,55,13.6,16.2
 2004/04/05, 7:45,15.3,59,13.6,16.2
 2004/04/05, 8:00,16.2,53,13.4,16.3
 2004/04/05, 8:15,16.4,54,13.4,15.4
 2004/04/05, 8:30,17.2,54,13.4,15.4
 2004/04/05, 8:45,17.7,53,13.6,15.6
 2004/04/05, 9:00,17.3,51,14,15.8
 2004/04/05, 9:15,17.3,52,14.4,15.9
 2004/04/05, 9:30,17.1,50,14.6,14.7
 2004/04/05, 9:45,17.7,50,14.6,14.8
 2004/04/05,10:00,18,48,14.6,15
 2004/04/05,10:15,18.2,47,14.7,15.2
 2004/04/05,10:30,18.5,47,14.7,15.4
 2004/04/05,10:45,17.7,37,14.7,15.5
 2004/04/05,11:00,16.9,37,14.4,15.7
 2004/04/05,11:15,16.4,35,14.1,15.8
 2004/04/05,11:30,16,34,13.4,15.9
 2004/04/05,11:45,16.3,38,13.7,16.1
 2004/04/05,12:00,16.4,36,13.8,16.1
 2004/04/05,12:15,16.3,36,14.2,16.1
 2004/04/05,12:30,17,42,14.3,16.2
 2004/04/05,12:45,17.5,42,14.2,16.2
 2004/04/05,13:00,18.1,42,14.2,16.3
 2004/04/05,13:15,18.4,42,14.2,16.3
 2004/04/05,13:30,18.5,42,14.2,15.7
 2004/04/05,13:45,18.6,44,14.3,15.6
 2004/04/05,14:00,18.6,43,14.5,15.7
 2004/04/05,14:15,18.5,43,14.7,15.9
 2004/04/05,14:30,18.6,43,14.9,16.1
 2004/04/05,14:45,18.6,43,15,16.3
 2004/04/05,15:00,18.8,43,15.2,16.4
 2004/04/05,15:15,18.7,43,15.5,16.6
 2004/04/05,15:30,18.9,43,15.6,16.7
 2004/04/05,15:45,19.1,43,15.9,16.8
 2004/04/05,16:00,19.1,43,16.1,17
 2004/04/05,16:15,19.3,44,16.4,17.1
 2004/04/05,16:30,19.4,44,16.6,17.2
 2004/04/05,16:45,19.5,44,16.8,16.6
 2004/04/05,17:00,19.6,44,16.9,16.8
 2004/04/05,17:15,19.6,44,17.3,17
 2004/04/05,17:30,19.6,43,17.4,17.2
 2004/04/05,17:45,19.8,44,17.3,17.4
 2004/04/05,18:00,20,44,17.3,17.5
 2004/04/05,18:15,19.8,44,17.4,17.7
 2004/04/05,18:30,20,44,17.5,17.8
 2004/04/05,18:45,20.1,44,17.4,17.9
 2004/04/05,19:00,20.3,48,17.3,18
 2004/04/05,19:15,20.6,49,17.2,18.1
 2004/04/05,19:30,20.5,49,17.2,18.2
 2004/04/05,19:45,20.5,49,17.1,17.3
 2004/04/05,20:00,20.5,49,17,17.3
 2004/04/05,20:15,20.6,49,17,15.6
 2004/04/05,20:30,20.7,50,17,16.1
 2004/04/05,20:45,20.6,50,16.9,16.4
 2004/04/05,21:00,20.7,49,16.9,16.7
 2004/04/05,21:15,20.7,49,16.8,16.9
 2004/04/05,21:30,20.7,49,16.8,16.8
 2004/04/05,21:45,20.6,49,16.7,16.5
 2004/04/05,22:00,20.5,50,16.7,16.8
 2004/04/05,22:15,20.5,49,16.7,16.2
 2004/04/05,22:30,20.3,50,16.6,16.3
 2004/04/05,22:45,20.4,50,16.5,16.5
 2004/04/05,23:00,20.3,51,16.5,16.8
 2004/04/05,23:15,20.2,51,16.4,17
 2004/04/05,23:30,20.1,51,16.4,17.1
 2004/04/05,23:45,20.1,52,16.4,15.8
 2004/04/06, 0:00,20,52,16.3,16.1
 2004/04/06, 0:15,19.9,52,16.3,15.9
 2004/04/06, 0:30,19.7,52,16.3,16.2
 2004/04/06, 0:45,19.5,52,16.3,16.1
 2004/04/06, 1:00,19.3,52,16.3,16.4
 2004/04/06, 1:15,19.2,52,16.3,16.6
 2004/04/06, 1:30,19.1,52,16.3,16.8
 2004/04/06, 1:45,18.9,51,16.2,16.9
 2004/04/06, 2:00,18.8,51,16.2,17.1
 2004/04/06, 2:15,18.6,52,16.1,17.2
 2004/04/06, 2:30,18.5,52,16.1,17.3
 2004/04/06, 2:45,18.5,52,16,17.4
 2004/04/06, 3:00,18.3,52,16,17.5
 2004/04/06, 3:15,18.2,52,15.9,17.5
 2004/04/06, 3:30,18.1,52,15.9,17.6
 2004/04/06, 3:45,18,51,15.8,17.6
 2004/04/06, 4:00,17.8,52,15.7,17.7
 2004/04/06, 4:15,17.8,52,15.7,17.7
 2004/04/06, 4:30,17.7,52,15.6,17.7
 2004/04/06, 4:45,17.5,51,15.6,17.8
 2004/04/06, 5:00,17.4,52,15.5,17.8
 2004/04/06, 5:15,17.4,52,15.5,17.8
 2004/04/06, 5:30,17.3,52,15.4,17.8
 2004/04/06, 5:45,17.1,52,15.4,17.9
 2004/04/06, 6:00,17.1,52,15.3,17.9
 2004/04/06, 6:15,17,52,15.2,17.9
 2004/04/06, 6:30,17,52,15.2,17.9
 2004/04/06, 6:45,17,52,15.1,17.2
 2004/04/06, 7:00,17.1,52,15.2,16.8
 2004/04/06, 7:15,17.2,55,15.2,16.9
 2004/04/06, 7:30,17.3,55,15.2,17
 2004/04/06, 7:45,17.4,52,15.3,14.8
 2004/04/06, 8:00,17.3,52,15.3,15.2
 2004/04/06, 8:15,17.5,52,15.5,15.5
 2004/04/06, 8:30,17.6,51,16,15.3
 2004/04/06, 8:45,17.7,51,15.9,15.6
 2004/04/06, 9:00,17.7,50,15.8,15.9
 2004/04/06, 9:15,18,49,15.9,16
 2004/04/06, 9:30,17.9,50,16,16.2
 2004/04/06, 9:45,18,49,16.1,16.3
 2004/04/06,10:00,18.2,49,16.2,16.5
 2004/04/06,10:15,18.2,49,16.3,16.6
 2004/04/06,10:30,18.3,49,16.5,16.7
 2004/04/06,10:45,18.4,49,16.6,16.8
 2004/04/06,11:00,18.5,49,16.8,16.8
 2004/04/06,11:15,18.6,49,16.9,16.9
 2004/04/06,11:30,18.7,49,17.1,17
 2004/04/06,11:45,18.9,49,17.2,17.1
 2004/04/06,12:00,19,49,17.4,17.2
 2004/04/06,12:15,19.2,48,17.5,16.6
 2004/04/06,12:30,19.3,49,17.7,16.7
 2004/04/06,12:45,19.3,48,17.8,17
 2004/04/06,13:00,19.4,48,17.9,16.7
 2004/04/06,13:15,19.4,48,18,16.8
 2004/04/06,13:30,19.5,48,18.1,17
 2004/04/06,13:45,19.5,48,18.2,17.2
 2004/04/06,14:00,19.6,48,18.2,17.4
 2004/04/06,14:15,19.7,48,18.3,17.6
 2004/04/06,14:30,19.8,48,18.4,17.7
 2004/04/06,14:45,19.8,48,18.5,17.9
 2004/04/06,15:00,19.9,48,18.6,18
 2004/04/06,15:15,20,48,18.7,18.1
 2004/04/06,15:30,20,48,18.8,18.2
 2004/04/06,15:45,20.1,48,18.8,18.3
 2004/04/06,16:00,20.2,48,18.9,18.4
 2004/04/06,16:15,20.2,48,18.9,18.5
 2004/04/06,16:30,20.3,47,19,18.6
 2004/04/06,16:45,20.3,47,19,18.7
 2004/04/06,17:00,20.4,46,19,18.8
 2004/04/06,17:15,20.4,46,19,18.9
 2004/04/06,17:30,20.5,46,19,18
 2004/04/06,17:45,20.5,47,19,18.3
 2004/04/06,18:00,20.6,47,19,18.5
 2004/04/06,18:15,20.6,47,18.9,18.7
 2004/04/06,18:30,20.7,47,18.9,18.8
 2004/04/06,18:45,20.7,47,18.8,18.9
 2004/04/06,19:00,20.9,48,18.7,19
 2004/04/06,19:15,21.1,49,18.6,19.1
 2004/04/06,19:30,21.2,51,18.5,19.2
 2004/04/06,19:45,21.3,50,18.4,19.2
 2004/04/06,20:00,21.3,49,18.3,19.3
 2004/04/06,20:15,21.3,50,18.2,19.3
 2004/04/06,20:30,21.4,49,18.1,19.4
 2004/04/06,20:45,21.4,49,18.1,19.4
 2004/04/06,21:00,21.4,49,18.1,19.5
 2004/04/06,21:15,21.2,49,18.1,17.8
 2004/04/06,21:30,21.2,50,18.1,17.6
 2004/04/06,21:45,21.2,50,18.1,17.9
 2004/04/06,22:00,21.2,51,18,15.7
 2004/04/06,22:15,21.2,52,18,16.3
 2004/04/06,22:30,21.2,52,18,16.8
 2004/04/06,22:45,21.2,52,18.1,17.1
 2004/04/06,23:00,21.1,52,18.2,16.4
 2004/04/06,23:15,21.1,53,18.2,15.8
 2004/04/06,23:30,21,53,18.4,16.3
 2004/04/06,23:45,20.9,53,18.5,16.7
 2004/04/07, 0:00,20.8,53,18.5,17
 2004/04/07, 0:15,20.7,53,18.5,17.3
 2004/04/07, 0:30,20.6,54,18.5,17.5
 2004/04/07, 0:45,20.5,53,18.4,17.6
 2004/04/07, 1:00,20.4,53,18.4,17.8
 2004/04/07, 1:15,20.3,53,18.4,17.9
 2004/04/07, 1:30,20.2,53,18.3,17.3
 2004/04/07, 1:45,20.1,53,18.3,17.5
 2004/04/07, 2:00,20,53,18.3,17.7
 2004/04/07, 2:15,20.1,53,18.2,17.9
 2004/04/07, 2:30,20.1,53,18.1,18
 2004/04/07, 2:45,20.1,53,18.1,18.1
 2004/04/07, 3:00,20.1,53,18,18.2
 2004/04/07, 3:15,20,53,17.9,17.9
 2004/04/07, 3:30,19.9,53,17.9,17.8
 2004/04/07, 3:45,19.8,53,17.9,18
 2004/04/07, 4:00,19.7,53,17.8,18.2
 2004/04/07, 4:15,19.6,53,17.7,18.3
 2004/04/07, 4:30,19.4,53,17.7,18.4
 2004/04/07, 4:45,19.4,53,17.6,18.5
 2004/04/07, 5:00,19.3,53,17.6,18.6
 2004/04/07, 5:15,19.2,53,17.5,18.6
 2004/04/07, 5:30,19.1,54,17.5,18.7
 2004/04/07, 5:45,19,54,17.5,18.8
 2004/04/07, 6:00,18.9,54,17.4,18.7
 2004/04/07, 6:15,18.9,54,17.4,18.2
 2004/04/07, 6:30,18.8,54,17.3,17.9
 2004/04/07, 6:45,18.9,54,17.3,18
 2004/04/07, 7:00,18.9,54,17.2,17.3
 2004/04/07, 7:15,19,54,17.2,17.4
 2004/04/07, 7:30,19,55,17.1,17.6
 2004/04/07, 7:45,19.1,55,17.1,15.4
 2004/04/07, 8:00,19.3,55,17.3,15.8
 2004/04/07, 8:15,19.3,56,17.4,15.4
 2004/04/07, 8:30,19.5,55,17.7,15.8
 2004/04/07, 8:45,19.6,55,17.8,16.1
 2004/04/07, 9:00,19.6,54,17.8,16.4
 2004/04/07, 9:15,19.6,54,17.8,16.6
 2004/04/07, 9:30,19.8,54,17.8,16.8
 2004/04/07, 9:45,19.9,53,17.9,16.9
 2004/04/07,10:00,20,53,18,17.1
 2004/04/07,10:15,20.1,52,18.1,17.2
 2004/04/07,10:30,20.3,52,18.2,17.3
 2004/04/07,10:45,20.3,52,18.3,17.4
 2004/04/07,11:00,20.3,52,18.4,17.5
 2004/04/07,11:15,20.3,52,18.4,17.6
 2004/04/07,11:30,20.5,51,18.5,17.6
 2004/04/07,11:45,20.6,51,18.6,17.7
 2004/04/07,12:00,20.7,50,18.8,17.8
 2004/04/07,12:15,20.8,50,18.9,17.9
 2004/04/07,12:30,20.9,50,19,18
 2004/04/07,12:45,20.9,50,19.1,18.1
 2004/04/07,13:00,21,50,19.2,18.2
 2004/04/07,13:15,21,50,19.3,18.3
 2004/04/07,13:30,21.1,50,19.4,18.4
 2004/04/07,13:45,21.1,49,19.5,18.5
 2004/04/07,14:00,21.2,50,19.6,17.7
 2004/04/07,14:15,21.3,49,19.6,17.8
 2004/04/07,14:30,21.4,49,19.8,18
 2004/04/07,14:45,21.5,49,19.9,18.3
 2004/04/07,15:00,21.6,49,20.1,18.5
 2004/04/07,15:15,21.7,49,20.2,18.6
 2004/04/07,15:30,21.7,49,20.3,18.8
 2004/04/07,15:45,21.8,45,20.4,18.9
 2004/04/07,16:00,21.7,42,20.3,19.1
 2004/04/07,16:15,21.7,43,20.3,19.2
 2004/04/07,16:30,21.5,41,20.2,19.2
 2004/04/07,16:45,21.6,40,20.2,19.3
 2004/04/07,17:00,21.6,43,20.2,19.4
 2004/04/07,17:15,21.6,44,20.2,19.5
 2004/04/07,17:30,21.8,46,20.3,19.6
 2004/04/07,17:45,21.9,47,20.4,19.7
 2004/04/07,18:00,22,48,20.5,19.7
 2004/04/07,18:15,22.1,48,20.5,19.8
 2004/04/07,18:30,22.2,49,20.5,18.7
 2004/04/07,18:45,22.3,52,20.4,17.7
 2004/04/07,19:00,22.3,52,20.4,18.1
 2004/04/07,19:15,22.2,51,20.3,18.4
 2004/04/07,19:30,22.4,51,20.3,18.7
 2004/04/07,19:45,22.5,52,20.2,18.8